Location: Cella
(44.7333°N, 10.5667°E)
Time: 08:29:19
(UTC+00:00)

Cosmos 1777 Rocket - Pass Details

Date: 22 June 2021
Orbit: 757 x 776 km, 74.0° (Epoch: 28 July)

Event Time Altitude Azimuth Distance (km) Brightness Sun altitude
Rises 23:42:18 0° 322° (NW) 3,262 8.0 -21.6°
Reaches altitude 10° 23:45:34 10° 302° (WNW) 2,330 6.8 -21.6°
Maximum altitude 23:48:40 16° 265° (W) 1,941 6.0 -21.5°
Enters shadow 23:49:30 15° 254° (WSW) 1,969 5.9 -21.5°
